User: anonymous
Location: Caltech
(34.1382°N, 118.1253°W)
Time: 00:34:09
(UTC-07:00)
Language:

AO-Echo - Orbit

View from above orbital plane
View from above orbital plane
View from above satellite
View from above satellite

Ground track
Ground track

The orbit data is extracted from the following two-line orbital elements,

1 28375U 04025K   14243.80178711  .00000117  00000-0  47460-4 0  9199
2 28375 098.2560 188.1593 0084304 123.5490 237.3787 14.41416756534801
Epoch (UTC): 31 August 2014 19:14:34
Eccentricity: 0.0084304
inclination: 98.2560°
perigee height: 694 km
apogee height: 814 km
right ascension of ascending node: 188.1593°
argument of perigee: 123.5490°
revolutions per day: 14.41416756
mean anomaly at epoch: 237.3787°
orbit number at epoch: 53480

The dashed part of the orbit path shows where the satellite is in the earth's shadow,  

DLR